Time,TemperatureF,DewpointF,PressureIn,WindDirection,WindDirectionDegrees,WindSpeedMPH,WindSpeedGustMPH,Humidity,HourlyPrecipIn,Conditions,Clouds,dailyrainin,SolarRadiationWatts/m^2,SoftwareType,DateUTC
2013-04-14 00:01:00,40.0,32.0,-100.00,WSW,242,2.0,12.0,74,0.00,,,0.21,0.000000,,2013-04-14 04:01:00,
2013-04-14 00:23:00,40.0,32.0,-100.00,WSW,242,2.0,12.0,74,0.00,,,0.21,0.000000,,2013-04-14 04:23:00,
2013-04-14 00:33:00,40.0,32.0,-100.00,WSW,242,2.0,12.0,74,0.00,,,0.21,0.000000,,2013-04-14 04:33:00,
2013-04-14 00:43:00,40.0,32.0,-100.00,WSW,242,2.0,12.0,74,0.00,,,0.21,0.000000,,2013-04-14 04:43:00,
2013-04-14 00:53:00,40.0,32.0,-100.00,WSW,242,2.0,12.0,74,0.00,,,0.21,0.000000,,2013-04-14 04:53:00,
2013-04-14 01:01:00,40.0,33.0,-100.00,WSW,246,2.0,9.0,76,0.00,,,0.19,0.000000,,2013-04-14 05:01:00,
2013-04-14 01:23:00,40.0,33.0,-100.00,WSW,246,2.0,9.0,76,0.00,,,0.19,0.000000,,2013-04-14 05:23:00,
2013-04-14 01:32:00,40.0,33.0,-100.00,WSW,246,2.0,9.0,76,0.00,,,0.19,0.000000,,2013-04-14 05:32:00,
2013-04-14 01:42:00,40.0,33.0,-100.00,WSW,246,2.0,9.0,76,0.00,,,0.19,0.000000,,2013-04-14 05:42:00,
2013-04-14 01:53:00,40.0,33.0,-100.00,WSW,246,2.0,9.0,76,0.00,,,0.19,0.000000,,2013-04-14 05:53:00,
2013-04-14 02:01:00,39.0,33.0,-100.00,SW,236,1.0,8.0,79,0.00,,,0.15,0.000000,,2013-04-14 06:01:00,
2013-04-14 02:22:00,39.0,33.0,-100.00,SW,236,1.0,8.0,79,0.00,,,0.15,0.000000,,2013-04-14 06:22:00,
2013-04-14 02:32:00,39.0,33.0,-100.00,SW,236,1.0,8.0,79,0.00,,,0.15,0.000000,,2013-04-14 06:32:00,
2013-04-14 02:42:00,39.0,33.0,-100.00,SW,236,1.0,8.0,79,0.00,,,0.15,0.000000,,2013-04-14 06:42:00,
2013-04-14 02:53:00,39.0,33.0,-100.00,SW,236,1.0,8.0,79,0.00,,,0.15,0.000000,,2013-04-14 06:53:00,
2013-04-14 03:01:00,38.0,33.0,-100.00,WSW,248,1.0,11.0,82,0.00,,,0.12,0.000000,,2013-04-14 07:01:00,
2013-04-14 03:23:00,38.0,33.0,-100.00,WSW,248,1.0,11.0,82,0.00,,,0.12,0.000000,,2013-04-14 07:23:00,
2013-04-14 03:33:00,38.0,33.0,-100.00,WSW,248,1.0,11.0,82,0.00,,,0.12,0.000000,,2013-04-14 07:33:00,
2013-04-14 03:42:00,38.0,33.0,-100.00,WSW,248,1.0,11.0,82,0.00,,,0.12,0.000000,,2013-04-14 07:42:00,
2013-04-14 03:52:00,38.0,33.0,-100.00,WSW,248,1.0,11.0,82,0.00,,,0.12,0.000000,,2013-04-14 07:52:00,
2013-04-14 04:01:00,38.0,35.0,-100.00,WSW,246,1.0,6.0,88,0.00,,,0.08,0.000000,,2013-04-14 08:01:00,
2013-04-14 04:33:00,38.0,35.0,-100.00,WSW,246,1.0,6.0,88,0.00,,,0.08,0.000000,,2013-04-14 08:33:00,
2013-04-14 04:43:00,38.0,35.0,-100.00,WSW,246,1.0,6.0,88,0.00,,,0.08,0.000000,,2013-04-14 08:43:00,
2013-04-14 04:52:00,38.0,35.0,-100.00,WSW,246,1.0,6.0,88,0.00,,,0.08,0.000000,,2013-04-14 08:52:00,
2013-04-14 05:01:00,36.0,34.0,-100.00,SW,224,1.0,8.0,93,0.02,,,0.08,0.000000,,2013-04-14 09:01:00,
2013-04-14 05:22:00,36.0,34.0,-100.00,SW,224,1.0,8.0,93,0.02,,,0.08,0.000000,,2013-04-14 09:22:00,
2013-04-14 05:33:00,36.0,34.0,-100.00,SW,224,1.0,8.0,93,0.02,,,0.08,0.000000,,2013-04-14 09:33:00,
2013-04-14 05:43:00,36.0,34.0,-100.00,SW,224,1.0,8.0,93,0.02,,,0.08,0.000000,,2013-04-14 09:43:00,
2013-04-14 05:54:00,36.0,34.0,-100.00,SW,224,1.0,8.0,93,0.02,,,0.08,0.000000,,2013-04-14 09:54:00,
2013-04-14 06:01:00,35.0,34.0,-100.00,WSW,247,1.0,5.0,95,0.02,,,0.09,0.000000,,2013-04-14 10:01:00,
2013-04-14 06:23:00,35.0,34.0,-100.00,WSW,247,1.0,5.0,95,0.02,,,0.09,0.000000,,2013-04-14 10:23:00,
2013-04-14 06:33:00,35.0,34.0,-100.00,WSW,247,1.0,5.0,95,0.02,,,0.09,0.000000,,2013-04-14 10:33:00,
2013-04-14 06:43:00,35.0,34.0,-100.00,WSW,247,1.0,5.0,95,0.02,,,0.09,0.000000,,2013-04-14 10:43:00,
2013-04-14 06:53:00,35.0,34.0,-100.00,WSW,247,1.0,5.0,95,0.02,,,0.09,0.000000,,2013-04-14 10:53:00,
2013-04-14 07:01:00,35.0,34.0,-100.00,SW,216,0.0,6.0,96,0.01,,,0.09,5.000000,,2013-04-14 11:01:00,
2013-04-14 07:23:00,35.0,34.0,-100.00,SW,216,0.0,6.0,96,0.01,,,0.09,5.000000,,2013-04-14 11:23:00,
2013-04-14 07:33:00,35.0,34.0,-100.00,SW,216,0.0,6.0,96,0.01,,,0.09,5.000000,,2013-04-14 11:33:00,
2013-04-14 07:42:00,35.0,34.0,-100.00,SW,216,0.0,6.0,96,0.01,,,0.09,5.000000,,2013-04-14 11:42:00,
2013-04-14 07:53:00,35.0,34.0,-100.00,SW,216,0.0,6.0,96,0.01,,,0.09,5.000000,,2013-04-14 11:53:00,
2013-04-14 08:01:00,36.0,35.0,-100.00,SW,225,1.0,5.0,95,0.01,,,0.09,57.000000,,2013-04-14 12:01:00,
2013-04-14 08:22:00,36.0,35.0,-100.00,SW,225,1.0,5.0,95,0.01,,,0.09,57.000000,,2013-04-14 12:22:00,
2013-04-14 08:32:00,36.0,35.0,-100.00,SW,225,1.0,5.0,95,0.01,,,0.09,57.000000,,2013-04-14 12:32:00,
2013-04-14 08:42:00,36.0,35.0,-100.00,SW,225,1.0,5.0,95,0.01,,,0.09,57.000000,,2013-04-14 12:42:00,
2013-04-14 08:52:00,36.0,35.0,-100.00,SW,225,1.0,5.0,95,0.01,,,0.09,57.000000,,2013-04-14 12:52:00,
2013-04-14 09:01:00,38.0,36.0,-100.00,WSW,246,1.0,6.0,93,0.00,,,0.09,99.000000,,2013-04-14 13:01:00,
2013-04-14 09:33:00,38.0,36.0,-100.00,WSW,246,1.0,6.0,93,0.00,,,0.09,99.000000,,2013-04-14 13:33:00,
2013-04-14 09:43:00,38.0,36.0,-100.00,WSW,246,1.0,6.0,93,0.00,,,0.09,99.000000,,2013-04-14 13:43:00,
2013-04-14 09:52:00,38.0,36.0,-100.00,WSW,246,1.0,6.0,93,0.00,,,0.09,99.000000,,2013-04-14 13:52:00,
2013-04-14 10:01:00,38.0,35.0,-100.00,SW,235,3.0,7.0,90,0.00,,,0.09,112.000000,,2013-04-14 14:01:00,
2013-04-14 10:32:00,38.0,35.0,-100.00,SW,235,3.0,7.0,90,0.00,,,0.09,112.000000,,2013-04-14 14:32:00,
2013-04-14 10:42:00,38.0,35.0,-100.00,SW,235,3.0,7.0,90,0.00,,,0.09,112.000000,,2013-04-14 14:42:00,
2013-04-14 10:53:00,38.0,35.0,-100.00,SW,235,3.0,7.0,90,0.00,,,0.09,112.000000,,2013-04-14 14:53:00,
2013-04-14 11:01:00,39.0,35.0,-100.00,WSW,250,2.0,7.0,84,0.00,,,-99.99,160.000000,,2013-04-14 15:01:00,
2013-04-14 11:34:00,39.0,35.0,-100.00,WSW,250,2.0,7.0,84,0.00,,,-99.99,160.000000,,2013-04-14 15:34:00,
2013-04-14 11:44:00,39.0,35.0,-100.00,WSW,250,2.0,7.0,84,0.00,,,-99.99,160.000000,,2013-04-14 15:44:00,
2013-04-14 11:53:00,39.0,35.0,-100.00,WSW,250,2.0,7.0,84,0.00,,,-99.99,160.000000,,2013-04-14 15:53:00,
2013-04-14 12:01:00,42.0,34.0,-100.00,WSW,247,3.0,10.0,72,0.00,,,0.09,311.000000,,2013-04-14 16:01:00,
2013-04-14 12:23:00,42.0,34.0,-100.00,WSW,247,3.0,10.0,72,0.00,,,0.09,311.000000,,2013-04-14 16:23:00,
2013-04-14 12:33:00,42.0,34.0,-100.00,WSW,247,3.0,10.0,72,0.00,,,0.09,311.000000,,2013-04-14 16:33:00,
2013-04-14 12:43:00,42.0,34.0,-100.00,WSW,247,3.0,10.0,72,0.00,,,0.09,311.000000,,2013-04-14 16:43:00,
2013-04-14 12:53:00,42.0,34.0,-100.00,WSW,247,3.0,10.0,72,0.00,,,0.09,311.000000,,2013-04-14 16:53:00,
2013-04-14 13:01:00,44.0,31.0,-100.00,WSW,248,4.0,13.0,60,0.00,,,0.09,459.000000,,2013-04-14 17:01:00,
2013-04-14 13:23:00,44.0,31.0,-100.00,WSW,248,4.0,13.0,60,0.00,,,0.09,459.000000,,2013-04-14 17:23:00,
2013-04-14 13:33:00,44.0,31.0,-100.00,WSW,248,4.0,13.0,60,0.00,,,0.09,459.000000,,2013-04-14 17:33:00,
2013-04-14 13:43:00,44.0,31.0,-100.00,WSW,248,4.0,13.0,60,0.00,,,0.09,459.000000,,2013-04-14 17:43:00,
2013-04-14 13:53:00,44.0,31.0,-100.00,WSW,248,4.0,13.0,60,0.00,,,0.09,459.000000,,2013-04-14 17:53:00,
2013-04-14 14:01:00,43.0,31.0,-100.00,WSW,252,1.0,10.0,63,0.00,,,0.09,320.000000,,2013-04-14 18:01:00,
2013-04-14 14:22:00,43.0,31.0,-100.00,WSW,252,1.0,10.0,63,0.00,,,0.09,320.000000,,2013-04-14 18:22:00,
2013-04-14 14:33:00,43.0,31.0,-100.00,WSW,252,1.0,10.0,63,0.00,,,0.09,320.000000,,2013-04-14 18:33:00,
2013-04-14 14:43:00,43.0,31.0,-100.00,WSW,252,1.0,10.0,63,0.00,,,0.09,320.000000,,2013-04-14 18:43:00,
2013-04-14 14:54:00,43.0,31.0,-100.00,WSW,252,1.0,10.0,63,0.00,,,0.09,320.000000,,2013-04-14 18:54:00,
2013-04-14 15:01:00,47.0,28.0,-100.00,West,276,3.0,12.0,48,0.00,,,0.09,423.000000,,2013-04-14 19:01:00,
2013-04-14 15:33:00,47.0,28.0,-100.00,West,276,3.0,12.0,48,0.00,,,0.09,423.000000,,2013-04-14 19:33:00,
2013-04-14 15:43:00,47.0,28.0,-100.00,West,276,3.0,12.0,48,0.00,,,0.09,423.000000,,2013-04-14 19:43:00,
2013-04-14 15:53:00,47.0,28.0,-100.00,West,276,3.0,12.0,48,0.00,,,0.09,423.000000,,2013-04-14 19:53:00,
2013-04-14 16:01:00,44.0,26.0,-100.00,WSW,257,3.0,11.0,49,0.00,,,0.07,206.000000,,2013-04-14 20:01:00,
2013-04-14 16:33:00,44.0,26.0,-100.00,WSW,257,3.0,11.0,49,0.00,,,0.07,206.000000,,2013-04-14 20:33:00,
2013-04-14 16:43:00,44.0,26.0,-100.00,WSW,257,3.0,11.0,49,0.00,,,0.07,206.000000,,2013-04-14 20:43:00,
2013-04-14 16:53:00,44.0,26.0,-100.00,WSW,257,3.0,11.0,49,0.00,,,0.07,206.000000,,2013-04-14 20:53:00,
2013-04-14 17:01:00,45.0,26.0,-100.00,WSW,251,3.0,8.0,47,0.00,,,0.07,165.000000,,2013-04-14 21:01:00,
2013-04-14 17:33:00,45.0,26.0,-100.00,WSW,251,3.0,8.0,47,0.00,,,0.07,165.000000,,2013-04-14 21:33:00,
2013-04-14 17:43:00,45.0,26.0,-100.00,WSW,251,3.0,8.0,47,0.00,,,0.07,165.000000,,2013-04-14 21:43:00,
2013-04-14 17:53:00,45.0,26.0,-100.00,WSW,251,3.0,8.0,47,0.00,,,0.07,165.000000,,2013-04-14 21:53:00,
2013-04-14 18:01:00,43.0,28.0,-100.00,West,260,2.0,12.0,54,0.00,,,0.07,125.000000,,2013-04-14 22:01:00,
2013-04-14 18:33:00,43.0,28.0,-100.00,West,260,2.0,12.0,54,0.00,,,0.07,125.000000,,2013-04-14 22:33:00,
2013-04-14 18:44:00,43.0,28.0,-100.00,West,260,2.0,12.0,54,0.00,,,0.07,125.000000,,2013-04-14 22:44:00,
2013-04-14 18:53:00,43.0,28.0,-100.00,West,260,2.0,12.0,54,0.00,,,0.07,125.000000,,2013-04-14 22:53:00,
2013-04-14 19:01:00,43.0,28.0,-100.00,WSW,257,2.0,8.0,54,0.00,,,0.06,81.000000,,2013-04-14 23:01:00,
2013-04-14 19:23:00,43.0,28.0,-100.00,WSW,257,2.0,8.0,54,0.00,,,0.06,81.000000,,2013-04-14 23:23:00,
2013-04-14 19:33:00,43.0,28.0,-100.00,WSW,257,2.0,8.0,54,0.00,,,0.06,81.000000,,2013-04-14 23:33:00,
2013-04-14 19:43:00,43.0,28.0,-100.00,WSW,257,2.0,8.0,54,0.00,,,0.06,81.000000,,2013-04-14 23:43:00,
2013-04-14 19:53:00,43.0,28.0,-100.00,WSW,257,2.0,8.0,54,0.00,,,0.06,81.000000,,2013-04-14 23:53:00,
2013-04-14 20:01:00,37.0,29.0,-100.00,West,272,0.0,5.0,72,0.00,,,0.06,10.000000,,2013-04-15 00:01:00,
2013-04-14 20:23:00,37.0,29.0,-100.00,West,272,0.0,5.0,72,0.00,,,0.06,10.000000,,2013-04-15 00:23:00,
2013-04-14 20:33:00,37.0,29.0,-100.00,West,272,0.0,5.0,72,0.00,,,0.06,10.000000,,2013-04-15 00:33:00,
2013-04-14 20:43:00,37.0,29.0,-100.00,West,272,0.0,5.0,72,0.00,,,0.06,10.000000,,2013-04-15 00:43:00,
2013-04-14 20:53:00,37.0,29.0,-100.00,West,272,0.0,5.0,72,0.00,,,0.06,10.000000,,2013-04-15 00:53:00,
2013-04-14 21:01:00,33.0,28.0,-100.00,NNE,23,0.0,0.0,81,0.00,,,0.06,0.000000,,2013-04-15 01:01:00,
2013-04-14 21:33:00,33.0,28.0,-100.00,NNE,23,0.0,0.0,81,0.00,,,0.06,0.000000,,2013-04-15 01:33:00,
2013-04-14 21:43:00,33.0,28.0,-100.00,NNE,23,0.0,0.0,81,0.00,,,0.06,0.000000,,2013-04-15 01:43:00,
2013-04-14 21:52:00,33.0,28.0,-100.00,NNE,23,0.0,0.0,81,0.00,,,0.06,0.000000,,2013-04-15 01:52:00,
2013-04-14 22:01:00,30.0,27.0,-100.00,SSW,212,0.0,1.0,90,0.00,,,0.06,0.000000,,2013-04-15 02:01:00,
2013-04-14 22:22:00,30.0,27.0,-100.00,SSW,212,0.0,1.0,90,0.00,,,0.06,0.000000,,2013-04-15 02:22:00,
2013-04-14 22:32:00,30.0,27.0,-100.00,SSW,212,0.0,1.0,90,0.00,,,0.06,0.000000,,2013-04-15 02:32:00,
2013-04-14 22:42:00,30.0,27.0,-100.00,SSW,212,0.0,1.0,90,0.00,,,0.06,0.000000,,2013-04-15 02:42:00,
2013-04-14 22:53:00,30.0,27.0,-100.00,SSW,212,0.0,1.0,90,0.00,,,0.06,0.000000,,2013-04-15 02:53:00,
2013-04-14 23:01:00,29.0,27.0,-100.00,ESE,112,0.0,0.0,92,0.00,,,0.06,0.000000,,2013-04-15 03:01:00,
2013-04-14 23:33:00,29.0,27.0,-100.00,ESE,112,0.0,0.0,92,0.00,,,0.06,0.000000,,2013-04-15 03:33:00,
2013-04-14 23:43:00,29.0,27.0,-100.00,ESE,112,0.0,0.0,92,0.00,,,0.06,0.000000,,2013-04-15 03:43:00,
2013-04-14 23:55:00,29.0,27.0,-100.00,ESE,112,0.0,0.0,92,0.00,,,0.06,0.000000,,2013-04-15 03:55:00,